Time,TemperatureF,DewpointF,PressureIn,WindDirection,WindDirectionDegrees,WindSpeedMPH,WindSpeedGustMPH,Humidity,HourlyPrecipIn,Conditions,Clouds,dailyrainin,SoftwareType,DateUTC
2013-01-17 00:04:00,30.0,25.0,-100.00,WSW,240,9.0,16.0,81,0.00,,,-99.99,,2013-01-17 05:04:00,
2013-01-17 00:12:00,30.0,25.0,-100.00,WSW,255,6.0,14.0,80,0.00,,,-99.99,,2013-01-17 05:12:00,
2013-01-17 00:22:00,30.0,25.0,-100.00,WSW,245,7.0,11.0,80,0.00,,,-99.99,,2013-01-17 05:22:00,
2013-01-17 00:33:00,30.0,25.0,-100.00,WSW,255,7.0,12.0,80,0.00,,,-99.99,,2013-01-17 05:33:00,
2013-01-17 00:42:00,30.0,25.0,-100.00,WSW,240,7.0,14.0,80,0.00,,,-99.99,,2013-01-17 05:42:00,
2013-01-17 00:52:00,30.0,25.0,-100.00,SW,230,7.0,16.0,79,0.00,,,-99.99,,2013-01-17 05:52:00,
2013-01-17 01:03:00,31.0,25.0,-100.00,WSW,250,9.0,16.0,79,0.00,,,-99.99,,2013-01-17 06:03:00,
2013-01-17 01:12:00,31.0,25.0,-100.00,WSW,245,7.0,13.0,79,0.00,,,-99.99,,2013-01-17 06:12:00,
2013-01-17 01:22:00,31.0,25.0,-100.00,WSW,240,9.0,14.0,79,0.00,,,-99.99,,2013-01-17 06:22:00,
2013-01-17 01:33:00,31.0,25.0,-100.00,WSW,250,9.0,12.0,79,0.00,,,-99.99,,2013-01-17 06:33:00,
2013-01-17 01:42:00,31.0,25.0,-100.00,West,265,9.0,14.0,79,0.00,,,-99.99,,2013-01-17 06:42:00,
2013-01-17 01:52:00,31.0,25.0,-100.00,WSW,255,7.0,13.0,79,0.00,,,-99.99,,2013-01-17 06:52:00,
2013-01-17 02:02:00,31.0,25.0,-100.00,WSW,255,7.0,15.0,79,0.00,,,-99.99,,2013-01-17 07:02:00,
2013-01-17 02:12:00,31.0,25.0,-100.00,West,260,8.0,14.0,79,0.00,,,-99.99,,2013-01-17 07:12:00,
2013-01-17 02:22:00,31.0,25.0,-100.00,West,260,7.0,12.0,79,0.00,,,-99.99,,2013-01-17 07:22:00,
2013-01-17 02:33:00,31.0,25.0,-100.00,West,275,6.0,14.0,79,0.00,,,-99.99,,2013-01-17 07:33:00,
2013-01-17 02:42:00,31.0,25.0,-100.00,WSW,250,7.0,12.0,79,0.00,,,-99.99,,2013-01-17 07:42:00,
2013-01-17 02:52:00,31.0,25.0,-100.00,SW,235,10.0,12.0,78,0.00,,,-99.99,,2013-01-17 07:52:00,
2013-01-17 03:02:00,31.0,25.0,-100.00,WSW,250,8.0,12.0,78,0.00,,,-99.99,,2013-01-17 08:02:00,
2013-01-17 03:12:00,31.0,25.0,-100.00,WSW,255,8.0,14.0,79,0.00,,,-99.99,,2013-01-17 08:12:00,
2013-01-17 03:22:00,31.0,25.0,-100.00,WSW,255,7.0,10.0,79,0.00,,,-99.99,,2013-01-17 08:22:00,
2013-01-17 03:32:00,31.0,25.0,-100.00,WSW,245,9.0,12.0,79,0.00,,,-99.99,,2013-01-17 08:32:00,
2013-01-17 03:43:00,31.0,25.0,-100.00,WSW,245,7.0,12.0,78,0.00,,,-99.99,,2013-01-17 08:43:00,
2013-01-17 03:52:00,31.0,25.0,-100.00,WSW,250,6.0,9.0,79,0.00,,,-99.99,,2013-01-17 08:52:00,
2013-01-17 04:03:00,31.0,25.0,-100.00,West,265,6.0,11.0,78,0.00,,,-99.99,,2013-01-17 09:03:00,
2013-01-17 04:12:00,31.0,25.0,-100.00,West,265,6.0,11.0,78,0.00,,,-99.99,,2013-01-17 09:12:00,
2013-01-17 04:22:00,31.0,25.0,-100.00,WSW,240,7.0,12.0,78,0.00,,,-99.99,,2013-01-17 09:22:00,
2013-01-17 04:32:00,31.0,25.0,-100.00,WSW,245,4.0,9.0,78,0.00,,,-99.99,,2013-01-17 09:32:00,
2013-01-17 04:42:00,31.0,25.0,-100.00,WSW,255,4.0,9.0,78,0.00,,,-99.99,,2013-01-17 09:42:00,
2013-01-17 04:53:00,31.0,25.0,-100.00,West,260,5.0,8.0,78,0.00,,,-99.99,,2013-01-17 09:53:00,
2013-01-17 05:02:00,31.0,25.0,-100.00,WSW,255,6.0,9.0,78,0.00,,,-99.99,,2013-01-17 10:02:00,
2013-01-17 05:12:00,31.0,25.0,-100.00,WSW,255,6.0,9.0,78,0.00,,,-99.99,,2013-01-17 10:12:00,
2013-01-17 05:22:00,31.0,25.0,-100.00,WSW,250,4.0,6.0,78,0.00,,,-99.99,,2013-01-17 10:22:00,
2013-01-17 05:32:00,31.0,25.0,-100.00,WSW,240,4.0,9.0,78,0.00,,,-99.99,,2013-01-17 10:32:00,
2013-01-17 05:42:00,31.0,25.0,-100.00,WSW,250,5.0,6.0,78,0.00,,,-99.99,,2013-01-17 10:42:00,
2013-01-17 05:52:00,31.0,25.0,-100.00,WSW,240,6.0,8.0,78,0.00,,,-99.99,,2013-01-17 10:52:00,
2013-01-17 06:03:00,31.0,24.0,-100.00,West,265,4.0,7.0,77,0.00,,,-99.99,,2013-01-17 11:03:00,
2013-01-17 06:12:00,31.0,25.0,-100.00,West,275,3.0,4.0,78,0.00,,,-99.99,,2013-01-17 11:12:00,
2013-01-17 06:22:00,31.0,25.0,-100.00,West,270,3.0,6.0,78,0.00,,,-99.99,,2013-01-17 11:22:00,
2013-01-17 06:33:00,31.0,25.0,-100.00,WSW,255,3.0,6.0,78,0.00,,,-99.99,,2013-01-17 11:33:00,
2013-01-17 06:42:00,31.0,25.0,-100.00,WSW,245,3.0,7.0,78,0.00,,,-99.99,,2013-01-17 11:42:00,
2013-01-17 06:52:00,31.0,25.0,-100.00,WSW,255,3.0,6.0,78,0.00,,,-99.99,,2013-01-17 11:52:00,
2013-01-17 07:02:00,31.0,25.0,-100.00,WSW,250,4.0,7.0,78,0.00,,,-99.99,,2013-01-17 12:02:00,
2013-01-17 07:12:00,31.0,25.0,-100.00,West,265,3.0,6.0,78,0.00,,,-99.99,,2013-01-17 12:12:00,
2013-01-17 07:23:00,31.0,25.0,-100.00,WSW,250,4.0,6.0,78,0.00,,,-99.99,,2013-01-17 12:23:00,
2013-01-17 07:33:00,31.0,25.0,-100.00,West,260,4.0,6.0,77,0.00,,,-99.99,,2013-01-17 12:33:00,
2013-01-17 07:43:00,31.0,25.0,-100.00,SW,235,2.0,5.0,79,0.00,,,-99.99,,2013-01-17 12:43:00,
2013-01-17 07:52:00,30.0,25.0,-100.00,West,280,3.0,5.0,79,0.00,,,-99.99,,2013-01-17 12:52:00,
2013-01-17 08:03:00,30.0,25.0,-100.00,NW,305,1.0,4.0,79,0.00,,,-99.99,,2013-01-17 13:03:00,
2013-01-17 08:12:00,30.0,25.0,-100.00,West,270,2.0,4.0,79,0.00,,,-99.99,,2013-01-17 13:12:00,
2013-01-17 08:23:00,30.0,25.0,-100.00,WNW,285,2.0,6.0,79,0.00,,,-99.99,,2013-01-17 13:23:00,
2013-01-17 08:33:00,30.0,25.0,-100.00,WNW,285,3.0,5.0,79,0.00,,,-99.99,,2013-01-17 13:33:00,
2013-01-17 08:43:00,31.0,25.0,-100.00,West,280,2.0,5.0,79,0.00,,,-99.99,,2013-01-17 13:43:00,
2013-01-17 08:52:00,31.0,25.0,-100.00,West,265,2.0,4.0,79,0.00,,,-99.99,,2013-01-17 13:52:00,
2013-01-17 09:03:00,31.0,25.0,-100.00,West,260,3.0,5.0,79,0.00,,,-99.99,,2013-01-17 14:03:00,
2013-01-17 09:12:00,31.0,25.0,-100.00,West,265,2.0,5.0,78,0.00,,,-99.99,,2013-01-17 14:12:00,
2013-01-17 09:23:00,31.0,25.0,-100.00,WSW,250,2.0,6.0,78,0.00,,,-99.99,,2013-01-17 14:23:00,
2013-01-17 09:33:00,31.0,25.0,-100.00,SW,230,4.0,5.0,78,0.00,,,-99.99,,2013-01-17 14:33:00,
2013-01-17 09:43:00,31.0,25.0,-100.00,West,275,2.0,6.0,78,0.00,,,-99.99,,2013-01-17 14:43:00,
2013-01-17 09:53:00,31.0,25.0,-100.00,WSW,255,2.0,4.0,78,0.00,,,-99.99,,2013-01-17 14:53:00,
2013-01-17 10:03:00,31.0,25.0,-100.00,West,270,3.0,6.0,77,0.00,,,-99.99,,2013-01-17 15:03:00,
2013-01-17 10:12:00,31.0,25.0,-100.00,West,270,4.0,6.0,77,0.00,,,-99.99,,2013-01-17 15:12:00,
2013-01-17 10:23:00,31.0,26.0,-100.00,West,275,2.0,5.0,78,0.00,,,-99.99,,2013-01-17 15:23:00,
2013-01-17 10:33:00,32.0,26.0,-100.00,WNW,295,1.0,4.0,78,0.00,,,-99.99,,2013-01-17 15:33:00,
2013-01-17 10:43:00,32.0,26.0,-100.00,West,265,3.0,5.0,78,0.00,,,-99.99,,2013-01-17 15:43:00,
2013-01-17 10:53:00,32.0,26.0,-100.00,West,275,4.0,6.0,78,0.00,,,-99.99,,2013-01-17 15:53:00,
2013-01-17 11:03:00,32.0,26.0,-100.00,West,270,2.0,5.0,77,0.00,,,-99.99,,2013-01-17 16:03:00,
2013-01-17 11:12:00,32.0,26.0,-100.00,WSW,255,1.0,4.0,77,0.00,,,-99.99,,2013-01-17 16:12:00,
2013-01-17 11:23:00,32.0,26.0,-100.00,West,270,3.0,6.0,78,0.00,,,-99.99,,2013-01-17 16:23:00,
2013-01-17 11:33:00,32.0,26.0,-100.00,West,270,4.0,6.0,77,0.00,,,-99.99,,2013-01-17 16:33:00,
2013-01-17 11:43:00,32.0,26.0,-100.00,NW,310,3.0,6.0,79,0.00,,,-99.99,,2013-01-17 16:43:00,
2013-01-17 11:53:00,32.0,26.0,-100.00,WNW,300,4.0,6.0,77,0.00,,,-99.99,,2013-01-17 16:53:00,
2013-01-17 12:03:00,33.0,26.0,-100.00,NW,305,2.0,5.0,77,0.00,,,-99.99,,2013-01-17 17:03:00,
2013-01-17 12:13:00,33.0,26.0,-100.00,NW,305,2.0,6.0,76,0.00,,,-99.99,,2013-01-17 17:13:00,
2013-01-17 12:23:00,33.0,26.0,-100.00,NW,315,4.0,7.0,74,0.00,,,-99.99,,2013-01-17 17:23:00,
2013-01-17 12:33:00,33.0,26.0,-100.00,NW,310,6.0,8.0,74,0.00,,,-99.99,,2013-01-17 17:33:00,
2013-01-17 12:43:00,34.0,26.0,-100.00,NW,310,3.0,7.0,73,0.00,,,-99.99,,2013-01-17 17:43:00,
2013-01-17 12:53:00,33.0,26.0,-100.00,NW,315,6.0,9.0,72,0.00,,,-99.99,,2013-01-17 17:53:00,
2013-01-17 13:04:00,33.0,26.0,-100.00,WNW,290,5.0,9.0,73,0.00,,,-99.99,,2013-01-17 18:04:00,
2013-01-17 13:12:00,33.0,26.0,-100.00,WNW,290,6.0,10.0,73,0.00,,,-99.99,,2013-01-17 18:12:00,
2013-01-17 13:22:00,34.0,26.0,-100.00,NW,310,6.0,9.0,73,0.00,,,-99.99,,2013-01-17 18:22:00,
2013-01-17 13:33:00,34.0,27.0,-100.00,NW,315,4.0,7.0,74,0.00,,,-99.99,,2013-01-17 18:33:00,
2013-01-17 13:43:00,34.0,26.0,-100.00,West,280,4.0,7.0,72,0.00,,,-99.99,,2013-01-17 18:43:00,
2013-01-17 13:53:00,34.0,26.0,-100.00,NW,315,6.0,8.0,72,0.00,,,-99.99,,2013-01-17 18:53:00,
2013-01-17 14:03:00,34.0,25.0,-100.00,NW,310,3.0,9.0,71,0.00,,,-99.99,,2013-01-17 19:03:00,
2013-01-17 14:12:00,34.0,25.0,-100.00,NW,320,4.0,7.0,69,0.00,,,-99.99,,2013-01-17 19:12:00,
2013-01-17 14:23:00,34.0,26.0,-100.00,NW,320,4.0,7.0,71,0.00,,,-99.99,,2013-01-17 19:23:00,
2013-01-17 14:33:00,34.0,25.0,-100.00,NW,320,1.0,6.0,70,0.00,,,-99.99,,2013-01-17 19:33:00,
2013-01-17 14:43:00,34.0,25.0,-100.00,West,275,1.0,6.0,70,0.00,,,-99.99,,2013-01-17 19:43:00,
2013-01-17 14:53:00,34.0,25.0,-100.00,West,280,3.0,7.0,70,0.00,,,-99.99,,2013-01-17 19:53:00,
2013-01-17 15:03:00,34.0,26.0,-100.00,WNW,295,2.0,5.0,70,0.00,,,-99.99,,2013-01-17 20:03:00,
2013-01-17 15:12:00,34.0,25.0,-100.00,WNW,295,3.0,5.0,69,0.00,,,-99.99,,2013-01-17 20:12:00,
2013-01-17 15:23:00,34.0,26.0,-100.00,WNW,290,1.0,4.0,70,0.00,,,-99.99,,2013-01-17 20:23:00,
2013-01-17 15:33:00,34.0,25.0,-100.00,NW,310,2.0,6.0,69,0.00,,,-99.99,,2013-01-17 20:33:00,
2013-01-17 15:43:00,34.0,25.0,-100.00,NW,315,4.0,6.0,69,0.00,,,-99.99,,2013-01-17 20:43:00,
2013-01-17 15:53:00,34.0,25.0,-100.00,West,275,2.0,5.0,70,0.00,,,-99.99,,2013-01-17 20:53:00,
2013-01-17 16:03:00,34.0,25.0,-100.00,SW,225,0.0,4.0,67,0.00,,,-99.99,,2013-01-17 21:03:00,
2013-01-17 16:13:00,34.0,25.0,-100.00,West,265,3.0,4.0,69,0.00,,,-99.99,,2013-01-17 21:13:00,
2013-01-17 16:23:00,34.0,25.0,-100.00,WNW,290,2.0,6.0,69,0.00,,,-99.99,,2013-01-17 21:23:00,
2013-01-17 16:34:00,34.0,25.0,-100.00,WSW,255,2.0,5.0,69,0.00,,,-99.99,,2013-01-17 21:34:00,
2013-01-17 16:43:00,34.0,25.0,-100.00,WSW,255,2.0,4.0,70,0.00,,,-99.99,,2013-01-17 21:43:00,
2013-01-17 16:52:00,33.0,25.0,-100.00,West,275,4.0,6.0,70,0.00,,,-99.99,,2013-01-17 21:52:00,
2013-01-17 17:03:00,33.0,25.0,-100.00,West,275,2.0,6.0,71,0.00,,,-99.99,,2013-01-17 22:03:00,
2013-01-17 17:12:00,33.0,25.0,-100.00,West,265,2.0,7.0,70,0.00,,,-99.99,,2013-01-17 22:12:00,
2013-01-17 17:23:00,33.0,25.0,-100.00,West,270,1.0,4.0,70,0.00,,,-99.99,,2013-01-17 22:23:00,
2013-01-17 17:33:00,33.0,25.0,-100.00,WSW,240,1.0,2.0,71,0.00,,,-99.99,,2013-01-17 22:33:00,
2013-01-17 17:43:00,33.0,25.0,-100.00,SW,220,1.0,3.0,72,0.00,,,-99.99,,2013-01-17 22:43:00,
2013-01-17 17:52:00,33.0,24.0,-100.00,WSW,255,4.0,5.0,70,0.00,,,-99.99,,2013-01-17 22:52:00,
2013-01-17 18:03:00,33.0,24.0,-100.00,WSW,240,3.0,5.0,71,0.00,,,-99.99,,2013-01-17 23:03:00,
2013-01-17 18:12:00,32.0,24.0,-100.00,West,260,4.0,5.0,72,0.00,,,-99.99,,2013-01-17 23:12:00,
2013-01-17 18:23:00,32.0,24.0,-100.00,WSW,255,4.0,6.0,72,0.00,,,-99.99,,2013-01-17 23:23:00,
2013-01-17 18:33:00,32.0,25.0,-100.00,West,280,4.0,6.0,73,0.00,,,-99.99,,2013-01-17 23:33:00,
2013-01-17 18:43:00,32.0,24.0,-100.00,WSW,255,4.0,5.0,73,0.00,,,-99.99,,2013-01-17 23:43:00,
2013-01-17 18:53:00,32.0,24.0,-100.00,West,265,2.0,4.0,73,0.00,,,-99.99,,2013-01-17 23:53:00,
2013-01-17 19:03:00,32.0,24.0,-100.00,WSW,255,4.0,6.0,72,0.00,,,-99.99,,2013-01-18 00:03:00,
2013-01-17 19:12:00,32.0,24.0,-100.00,WSW,255,4.0,7.0,72,0.00,,,-99.99,,2013-01-18 00:12:00,
2013-01-17 19:23:00,32.0,24.0,-100.00,WSW,255,3.0,7.0,72,0.00,,,-99.99,,2013-01-18 00:23:00,
2013-01-17 19:33:00,32.0,25.0,-100.00,WSW,240,1.0,5.0,73,0.00,,,-99.99,,2013-01-18 00:33:00,
2013-01-17 19:42:00,32.0,25.0,-100.00,WSW,240,3.0,4.0,74,0.00,,,-99.99,,2013-01-18 00:42:00,
2013-01-17 19:52:00,32.0,25.0,-100.00,SW,230,4.0,7.0,74,0.00,,,-99.99,,2013-01-18 00:52:00,
2013-01-17 20:03:00,32.0,25.0,-100.00,SW,225,4.0,6.0,77,0.00,,,-99.99,,2013-01-18 01:03:00,
2013-01-17 20:12:00,32.0,26.0,-100.00,SW,220,2.0,7.0,79,0.00,,,-99.99,,2013-01-18 01:12:00,
2013-01-17 20:23:00,31.0,27.0,-100.00,WSW,240,6.0,8.0,81,0.00,,,-99.99,,2013-01-18 01:23:00,
2013-01-17 20:33:00,31.0,27.0,-100.00,SW,225,4.0,9.0,83,0.00,,,-99.99,,2013-01-18 01:33:00,
2013-01-17 20:43:00,31.0,27.0,-100.00,WSW,245,5.0,9.0,83,0.00,,,-99.99,,2013-01-18 01:43:00,
2013-01-17 20:52:00,31.0,27.0,-100.00,WSW,240,5.0,9.0,83,0.00,,,-99.99,,2013-01-18 01:52:00,
2013-01-17 21:03:00,31.0,27.0,-100.00,SW,220,6.0,9.0,83,0.00,,,-99.99,,2013-01-18 02:03:00,
2013-01-17 21:12:00,31.0,27.0,-100.00,WSW,240,5.0,12.0,83,0.00,,,-99.99,,2013-01-18 02:12:00,
2013-01-17 21:22:00,31.0,27.0,-100.00,SW,230,6.0,10.0,83,0.00,,,-99.99,,2013-01-18 02:22:00,
2013-01-17 21:33:00,31.0,26.0,-100.00,WSW,240,8.0,12.0,83,0.00,,,-99.99,,2013-01-18 02:33:00,
2013-01-17 21:42:00,31.0,26.0,-100.00,WSW,250,7.0,13.0,82,0.00,,,-99.99,,2013-01-18 02:42:00,
2013-01-17 21:52:00,31.0,26.0,-100.00,WSW,255,7.0,10.0,83,0.00,,,-99.99,,2013-01-18 02:52:00,
2013-01-17 22:02:00,31.0,26.0,-100.00,WSW,255,6.0,11.0,82,0.00,,,-99.99,,2013-01-18 03:02:00,
2013-01-17 22:12:00,30.0,26.0,-100.00,West,260,4.0,9.0,81,0.00,,,-99.99,,2013-01-18 03:12:00,
2013-01-17 22:23:00,31.0,25.0,-100.00,WSW,255,7.0,12.0,79,0.00,,,-99.99,,2013-01-18 03:23:00,
2013-01-17 22:33:00,31.0,24.0,-100.00,West,275,8.0,16.0,77,0.00,,,-99.99,,2013-01-18 03:33:00,
2013-01-17 22:42:00,31.0,24.0,-100.00,WNW,285,11.0,16.0,75,0.00,,,-99.99,,2013-01-18 03:42:00,
2013-01-17 22:52:00,31.0,24.0,-100.00,WNW,290,11.0,21.0,73,0.00,,,-99.99,,2013-01-18 03:52:00,
2013-01-17 23:02:00,31.0,23.0,-100.00,WNW,295,9.0,24.0,71,0.00,,,-99.99,,2013-01-18 04:02:00,
2013-01-17 23:12:00,30.0,22.0,-100.00,NW,315,12.0,22.0,71,0.00,,,-99.99,,2013-01-18 04:12:00,
2013-01-17 23:22:00,29.0,21.0,-100.00,NW,315,10.0,18.0,71,0.00,,,-99.99,,2013-01-18 04:22:00,
2013-01-17 23:33:00,29.0,21.0,-100.00,NW,310,11.0,17.0,71,0.00,,,-99.99,,2013-01-18 04:33:00,
2013-01-17 23:42:00,28.0,18.0,-100.00,NW,325,17.0,25.0,64,0.00,,,-99.99,,2013-01-18 04:42:00,
2013-01-17 23:52:00,28.0,18.0,-100.00,NW,310,11.0,22.0,66,0.00,,,-99.99,,2013-01-18 04:52:00,